Weather History for KRPH - June, 2014

Change the Weather History Date:

Monday, June 23, 2014

  Actual Average (KMWL) Record (KMWL)
Temperature  
Mean Temperature 75 °F -  
Max Temperature 86 °F 89 °F 100 °F (2011)
Min Temperature 64 °F 69 °F 61 °F (2002)
Cooling Degree Days 10    
Growing Degree Days 25 (Base 50)    
Moisture  
Dew Point 65 °F    
Average Humidity 73    
Maximum Humidity 93    
Minimum Humidity 48    
Precipitation  
Precipitation 0.54 in - - ()
Sea Level Pressure  
Sea Level Pressure 29.92 in    
Wind  
Wind Speed 7 mph (North)    
Max Wind Speed 29 mph    
Max Gust Speed 39 mph    
Visibility 10 miles    
Events Rain    
Averages and records for this station are not official NWS values.
T = Trace of Precipitation, MM = Missing Value Source: NWS Daily Summary

Daily Weather History Graph

Daily Weather History Graph

Search for Another Location

Airport or City:

Trip Planner

Search our weather history database for the weather conditions in past years. The results will help you decide how hot, cold, wet, or windy it might be!

Date:

Astronomy

Jun. 23, 2014 Rise Set
Actual Time 6:26 AM CDT 8:46 PM CDT
Civil Twilight 5:57 AM CDT 9:15 PM CDT
Nautical Twilight 5:22 AM CDT 9:50 PM CDT
Astronomical Twilight 4:43 AM CDT 10:29 PM CDT
Moon 3:44 AM CDT (6/23) 5:36 PM CDT (6/23)
Length of Visible Light 15h 18m
Length of Day
14h 20m
Waning Crescent, 13% of the Moon is Illuminated
Jun 23
Waning Crescent
Jun 27
New
Jul 5
First Quarter
Jul 12
Full
Jul 18
Last Quarter

Hourly Weather History & Observations

Time (CDT) Temp. Heat Index Dew Point Humidity Pressure Visibility Wind Dir Wind Speed Gust Speed Precip Events Conditions
12:35 AM 73.4 °F - 67.6 °F 82% 29.81 in 10.0 mi SE 6.9 mph - N/A   Clear
12:55 AM 72.7 °F - 68.0 °F 85% 29.82 in 10.0 mi ESE 9.2 mph - N/A   Clear
1:15 AM 72.5 °F - 68.0 °F 86% 29.82 in 10.0 mi ESE 4.6 mph - N/A   Clear
1:35 AM 72.1 °F - 68.2 °F 87% 29.81 in 10.0 mi SE 5.8 mph - N/A   Clear
1:55 AM 72.0 °F - 68.2 °F 88% 29.81 in 10.0 mi SE 5.8 mph - N/A   Clear
2:15 AM 71.8 °F - 68.4 °F 89% 29.82 in 10.0 mi SE 5.8 mph - N/A   Clear
2:35 AM 71.8 °F - 68.5 °F 89% 29.82 in 10.0 mi SE 5.8 mph - N/A   Clear
2:55 AM 71.6 °F - 68.5 °F 90% 29.84 in 10.0 mi ESE 4.6 mph - N/A   Clear
3:15 AM 71.6 °F - 68.4 °F 89% 29.84 in 10.0 mi SE 3.5 mph - N/A   Clear
3:35 AM 71.6 °F - 68.4 °F 89% 29.84 in 10.0 mi ESE 5.8 mph - N/A   Clear
4:15 AM 71.6 °F - 68.2 °F 89% 29.86 in 10.0 mi Calm Calm - N/A   Clear
4:35 AM 71.8 °F - 68.4 °F 89% 29.89 in 10.0 mi Calm Calm - N/A   Mostly Cloudy
4:55 AM 72.1 °F - 68.4 °F 88% 29.91 in 10.0 mi Calm Calm - N/A   Overcast
5:15 AM 71.4 °F - 65.8 °F 82% 29.95 in 10.0 mi North 28.8 mph 39.1 mph N/A Rain Light Rain
5:35 AM 65.7 °F - 63.5 °F 93% 30.00 in 2.0 mi North 12.7 mph 26.5 mph 0.19 in Rain Heavy Rain
5:55 AM 65.3 °F - 63.1 °F 93% 29.99 in 4.0 mi North 13.8 mph 21.9 mph 0.38 in Rain Rain
6:15 AM 65.3 °F - 63.1 °F 93% 29.99 in 7.0 mi NNW 16.1 mph 21.9 mph 0.06 in Rain Rain
6:35 AM 64.9 °F - 63.0 °F 93% 29.98 in 7.0 mi North 6.9 mph - 0.09 in Rain Rain
6:55 AM 64.9 °F - 63.0 °F 93% 29.95 in 10.0 mi NNE 8.1 mph - 0.12 in Rain Rain
7:15 AM 65.3 °F - 62.8 °F 92% 29.94 in 10.0 mi NNE 10.4 mph 16.1 mph 0.02 in Rain Rain
7:35 AM 65.5 °F - 63.0 °F 92% 29.91 in 10.0 mi NE 9.2 mph 17.3 mph 0.03 in Rain Light Rain
7:55 AM 65.8 °F - 63.0 °F 90% 29.89 in 10.0 mi ENE 5.8 mph - 0.04 in   Light Drizzle
8:15 AM 66.2 °F - 63.5 °F 91% 29.89 in 10.0 mi South 5.8 mph - N/A   Scattered Clouds
8:35 AM 66.2 °F - 63.5 °F 91% 29.90 in 10.0 mi SSW 15.0 mph - N/A   Clear
8:55 AM 66.2 °F - 63.5 °F 91% 29.92 in 10.0 mi SSW 12.7 mph 19.6 mph N/A   Scattered Clouds
9:15 AM 66.4 °F - 63.9 °F 92% 29.89 in 10.0 mi SSE 5.8 mph 21.9 mph N/A   Scattered Clouds
9:35 AM 66.4 °F - 63.9 °F 92% 29.86 in 10.0 mi East 9.2 mph - N/A   Scattered Clouds
9:55 AM 67.5 °F - 64.2 °F 89% 29.83 in 10.0 mi East 8.1 mph - N/A   Scattered Clouds
10:15 AM 68.4 °F - 64.4 °F 87% 29.84 in 10.0 mi East 9.2 mph - N/A   Scattered Clouds
10:35 AM 70.0 °F - 64.4 °F 82% 29.85 in 10.0 mi ESE 5.8 mph - N/A   Clear
10:55 AM 71.8 °F - 64.0 °F 77% 29.92 in 10.0 mi SW 4.6 mph - N/A   Clear
11:15 AM 73.2 °F - 63.7 °F 72% 29.95 in 10.0 mi West 3.5 mph - N/A   Clear
11:35 AM 75.2 °F - 64.8 °F 70% 29.96 in 10.0 mi Calm Calm - N/A   Clear
11:55 AM 75.9 °F - 63.9 °F 66% 29.96 in 10.0 mi West 3.5 mph - N/A   Clear
12:15 PM 76.5 °F - 64.6 °F 67% 29.97 in 10.0 mi West 5.8 mph - N/A   Scattered Clouds
12:35 PM 78.3 °F - 64.8 °F 63% 29.97 in 10.0 mi NW 8.1 mph - N/A   Mostly Cloudy
12:55 PM 79.3 °F - 64.8 °F 61% 29.97 in 10.0 mi WNW 10.4 mph - N/A   Scattered Clouds
1:15 PM 80.1 °F 81.7 °F 64.2 °F 58% 29.97 in 10.0 mi NW 5.8 mph 16.1 mph N/A   Scattered Clouds
1:35 PM 80.4 °F 82.4 °F 66.0 °F 61% 29.97 in 10.0 mi NNW 9.2 mph - N/A   Overcast
1:55 PM 81.7 °F 83.6 °F 65.7 °F 58% 29.97 in 10.0 mi WNW 9.2 mph - N/A   Mostly Cloudy
2:15 PM 81.3 °F 83.0 °F 64.9 °F 57% 29.96 in 10.0 mi NNW 10.4 mph - N/A   Mostly Cloudy
2:35 PM 81.1 °F 82.7 °F 64.2 °F 56% 29.96 in 10.0 mi North 10.4 mph - N/A   Mostly Cloudy
2:55 PM 82.0 °F 83.6 °F 64.2 °F 55% 29.96 in 10.0 mi NNW 9.2 mph - N/A   Mostly Cloudy
3:15 PM 83.3 °F 84.4 °F 63.5 °F 51% 29.96 in 10.0 mi NNE 4.6 mph - N/A   Scattered Clouds
3:35 PM 84.6 °F 86.1 °F 64.4 °F 51% 29.96 in 10.0 mi NNW 11.5 mph 17.3 mph N/A   Scattered Clouds
3:55 PM 84.6 °F 86.3 °F 65.1 °F 52% 29.96 in 10.0 mi NNE 5.8 mph - N/A   Mostly Cloudy
4:15 PM 82.4 °F 84.2 °F 65.3 °F 56% 29.96 in 10.0 mi NNW 8.1 mph - N/A   Mostly Cloudy
4:35 PM 82.6 °F 84.3 °F 65.1 °F 55% 29.95 in 10.0 mi WNW 4.6 mph - N/A   Scattered Clouds
4:55 PM 85.1 °F 86.9 °F 65.1 °F 51% 29.94 in 10.0 mi North 3.5 mph - N/A   Clear
5:15 PM 86.0 °F 87.6 °F 64.6 °F 49% 29.94 in 10.0 mi NW 6.9 mph - N/A   Clear
5:35 PM 85.8 °F 87.4 °F 64.4 °F 49% 29.94 in 10.0 mi NNW 6.9 mph - N/A   Scattered Clouds
5:55 PM 86.0 °F 87.3 °F 64.4 °F 48% 29.93 in 10.0 mi West 4.6 mph - N/A   Clear
6:15 PM 86.2 °F 87.6 °F 64.2 °F 48% 29.93 in 10.0 mi West 4.6 mph - N/A   Clear
6:35 PM 86.5 °F 88.1 °F 64.6 °F 48% 29.92 in 10.0 mi WNW 5.8 mph - N/A   Clear
6:55 PM 86.0 °F 87.3 °F 64.4 °F 48% 29.92 in 10.0 mi West 4.6 mph - N/A   Clear
7:15 PM 86.0 °F 87.6 °F 64.9 °F 49% 29.92 in 10.0 mi NNW 3.5 mph - N/A   Clear
7:35 PM 85.3 °F 86.8 °F 64.6 °F 50% 29.92 in 10.0 mi NNW 3.5 mph - N/A   Clear
7:55 PM 84.4 °F 85.9 °F 64.6 °F 51% 29.92 in 10.0 mi Calm Calm - N/A   Clear
8:15 PM 83.3 °F 85.1 °F 65.1 °F 54% 29.92 in 10.0 mi Calm Calm - N/A   Clear
8:35 PM 81.9 °F 83.9 °F 65.8 °F 58% 29.93 in 10.0 mi Calm Calm - N/A   Clear
8:55 PM 80.8 °F 82.9 °F 66.4 °F 61% 29.93 in 10.0 mi Calm Calm - N/A   Clear
9:15 PM 79.3 °F - 66.6 °F 65% 29.94 in 10.0 mi Calm Calm - N/A   Clear
9:35 PM 78.3 °F - 66.7 °F 68% 29.95 in 10.0 mi Calm Calm - N/A   Clear
10:55 PM 74.5 °F - 67.5 °F 79% 29.99 in 10.0 mi ENE 3.5 mph - N/A   Clear
11:15 PM 73.8 °F - 67.6 °F 81% 30.00 in 10.0 mi Calm Calm - N/A   Clear
11:35 PM 73.4 °F - 67.5 °F 82% 30.01 in 10.0 mi ENE 3.5 mph - N/A   Clear
11:55 PM 72.9 °F - 67.3 °F 83% 30.01 in 10.0 mi East 3.5 mph - N/A   Clear